Moose, WY

4:31 PM MDT on September 27, 2016 (GMT -0600)
Jackson Hole

Weather History for KJAC - May, 2013

Change the Weather History Date:

Monday, May 13, 2013

  Actual Average Record
Temperature  
Mean Temperature 58 °F -  
Max Temperature 78 °F 59 °F 78 °F (2013)
Min Temperature 39 °F 27 °F 14 °F (1985)
Degree Days  
Heating Degree Days 6    
Growing Degree Days 8 (Base 50)    
Moisture  
Dew Point 35 °F    
Average Humidity 52    
Maximum Humidity 87    
Minimum Humidity 17    
Precipitation  
Precipitation 0.00 in - - ()
Sea Level Pressure  
Sea Level Pressure 30.20 in    
Wind  
Wind Speed 5 mph (West)    
Max Wind Speed 21 mph    
Max Gust Speed 31 mph    
Visibility 10 miles    
Events      
Averages and records for this station are not official NWS values.
T = Trace of Precipitation, MM = Missing Value Source: NWS Daily Summary

Daily Weather History Graph

Daily Weather History Graph

Search for Another Location

Airport or City:

Trip Planner

Search our weather history database for the weather conditions in past years. The results will help you decide how hot, cold, wet, or windy it might be!

Date:

Astronomy

May. 13, 2013 Rise Set
Actual Time 5:59 AM MDT 8:39 PM MDT
Civil Twilight 5:26 AM MDT 9:12 PM MDT
Nautical Twilight 4:45 AM MDT 9:53 PM MDT
Astronomical Twilight 3:58 AM MDT 10:41 PM MDT
Moon 8:48 AM MDT (5/13) 11:51 PM MDT (5/13)
Length of Visible Light 15h 45m
Length of Day
14h 39m
Waxing Crescent, 12% of the Moon is Illuminated
May 13
Waxing Crescent
May 17
First Quarter
May 24
Full
May 31
Last Quarter
Jun 8
New

Hourly Weather History & Observations

Time (MDT) Temp. Windchill Dew Point Humidity Pressure Visibility Wind Dir Wind Speed Gust Speed Precip Events Conditions
12:15 AM 51.8 °F - 35.6 °F 54% 30.25 in 10.0 mi Calm Calm - N/A   Clear
12:35 AM 51.8 °F - 33.8 °F 50% 30.25 in 10.0 mi Calm Calm - N/A   Clear
12:55 AM 48.2 °F - 35.6 °F 62% 30.25 in 10.0 mi Calm Calm - N/A   Clear
1:15 AM 50.0 °F - 35.6 °F 58% 30.25 in 10.0 mi Calm Calm - N/A   Partly Cloudy
1:35 AM 48.2 °F - 37.4 °F 66% 30.25 in 10.0 mi Calm Calm - N/A   Partly Cloudy
1:55 AM 44.6 °F 43.1 °F 35.6 °F 71% 30.25 in 10.0 mi NNW 3.5 mph - N/A   Clear
2:15 AM 48.2 °F - 35.6 °F 62% 30.25 in 10.0 mi Calm Calm - N/A   Clear
2:35 AM 53.6 °F - 33.8 °F 47% 30.25 in 10.0 mi SW 4.6 mph - N/A   Clear
2:55 AM 50.0 °F - 35.6 °F 58% 30.25 in 10.0 mi WSW 3.5 mph - N/A   Clear
3:15 AM 44.6 °F 42.2 °F 35.6 °F 71% 30.25 in 10.0 mi North 4.6 mph - N/A   Clear
3:35 AM 44.6 °F 40.7 °F 35.6 °F 71% 30.26 in 10.0 mi North 6.9 mph - N/A   Clear
3:55 AM 42.8 °F 39.3 °F 37.4 °F 81% 30.26 in 10.0 mi North 5.8 mph - N/A   Clear
4:15 AM 42.8 °F 37.5 °F 35.6 °F 76% 30.26 in 10.0 mi North 9.2 mph - N/A   Clear
4:35 AM 42.8 °F 38.0 °F 35.6 °F 76% 30.26 in 10.0 mi North 8.1 mph - N/A   Clear
4:55 AM 42.8 °F 38.0 °F 35.6 °F 76% 30.26 in 10.0 mi North 8.1 mph - N/A   Clear
5:15 AM 41.0 °F 37.1 °F 35.6 °F 81% 30.26 in 10.0 mi North 5.8 mph - N/A   Clear
5:35 AM 39.2 °F 33.6 °F 35.6 °F 87% 30.26 in 10.0 mi North 8.1 mph - N/A   Clear
6:15 AM 39.2 °F 33.0 °F 35.6 °F 87% 30.27 in 10.0 mi North 9.2 mph - N/A   Clear
6:35 AM 42.8 °F 37.5 °F 37.4 °F 81% 30.28 in 10.0 mi North 9.2 mph - N/A   Clear
6:51 AM 42.8 °F - 37.4 °F 81% 30.28 in 10.0 mi Calm Calm - N/A   Clear
6:55 AM 42.8 °F 38.0 °F 37.4 °F 81% 30.28 in 10.0 mi North 8.1 mph - N/A   Clear
7:53 AM 48.2 °F - 37.4 °F 66% 30.29 in 10.0 mi North 6.9 mph - N/A   Clear
8:51 AM 53.6 °F - 37.4 °F 54% 30.29 in 10.0 mi North 5.8 mph - N/A   Clear
9:51 AM 57.2 °F - 35.6 °F 44% 30.28 in 10.0 mi SSE 4.6 mph - N/A   Clear
10:53 AM 64.4 °F - 37.4 °F 37% 30.26 in 10.0 mi SSW 3.5 mph - N/A   Clear
11:54 AM 73.4 °F - 33.8 °F 23% 30.23 in 10.0 mi South 13.8 mph - N/A   Clear
12:47 PM 75.2 °F - 30.2 °F 19% 30.21 in 10.0 mi SSW 13.8 mph 26.5 mph N/A   Scattered Clouds
2:55 PM 78.8 °F - 30.2 °F 17% 30.17 in 10.0 mi SSW 16.1 mph 21.9 mph N/A   Scattered Clouds
3:51 PM 77.0 °F - 28.4 °F 17% 30.15 in 10.0 mi South 20.7 mph 31.1 mph N/A   Scattered Clouds
4:56 PM 73.4 °F - 30.2 °F 20% 30.14 in 10.0 mi SW 20.7 mph 26.5 mph N/A   Scattered Clouds
5:55 PM 77.0 °F - 32.0 °F 19% - 10.0 mi SSW 12.7 mph 26.5 mph N/A   Scattered Clouds
6:59 PM 71.6 °F - 33.8 °F 25% 30.09 in 10.0 mi South 12.7 mph - N/A   Mostly Cloudy
7:51 PM 71.6 °F - 33.8 °F 25% 30.09 in 10.0 mi SW 6.9 mph - N/A   Partly Cloudy
8:51 PM 62.6 °F - 32.0 °F 32% 30.07 in 10.0 mi SW 6.9 mph - N/A   Partly Cloudy
8:55 PM 60.8 °F - 33.8 °F 36% 30.07 in 10.0 mi SW 5.8 mph - N/A   Scattered Clouds
9:15 PM 60.8 °F - 33.8 °F 36% 30.08 in 10.0 mi SSW 6.9 mph - N/A   Mostly Cloudy
9:55 PM 60.8 °F - 33.8 °F 36% 30.09 in 10.0 mi Calm Calm - N/A   Clear
10:15 PM 60.8 °F - 33.8 °F 36% 30.09 in 10.0 mi South 6.9 mph - N/A   Clear
10:35 PM 59.0 °F - 33.8 °F 39% 30.09 in 10.0 mi South 9.2 mph - N/A   Partly Cloudy
11:15 PM 57.2 °F - 33.8 °F 41% 30.08 in 10.0 mi Calm Calm - N/A   Clear
11:35 PM 59.0 °F - 33.8 °F 39% 30.08 in 10.0 mi West 3.5 mph - N/A   Clear
11:55 PM 57.2 °F - 33.8 °F 41% 30.08 in 10.0 mi ESE 3.5 mph - N/A   Mostly Cloudy